| time (UTC) | temp F | wind direction | speed MPH | gust MPH | rain 1hr in | rain 24hr in | rain mn in | humidity % | barometer mb |
| 20260905095850 | 0 | 295 | 4.0 | 7.0 | 0.00 | 0.11 | 0.00 | 1022.1 | |
| 20260905095351 | 0 | 285 | 4.0 | 13.0 | 0.00 | 0.11 | 0.00 | 1021.9 | |
| 20260905094854 | 0 | 293 | 13.0 | 13.0 | 0.00 | 0.11 | 0.00 | 1022.1 | |
| 20260905094357 | 66 | 289 | 6.0 | 7.0 | 0.00 | 0.11 | 0.00 | 69 | 1022.1 |
| 20260905093851 | 0 | 312 | 7.0 | 7.0 | 0.00 | 0.11 | 0.00 | 1022.0 | |
| 20260905093558 | 0 | 276 | 9.0 | 12.0 | 0.00 | 0.11 | 0.00 | 1021.5 | |
| 20260905093504 | 67 | 261 | 7.0 | 12.0 | 0.00 | 0.11 | 0.00 | 71 | 1021.8 |
| 20260905092351 | 0 | 247 | 3.0 | 13.0 | 0.00 | 0.11 | 0.00 | 1021.8 | |
| 20260905092221 | 67 | 252 | 11.0 | 13.0 | 0.00 | 0.11 | 0.00 | 71 | 1021.8 |
| 20260905091349 | 0 | 0.0 | 0.0 | 0.00 | 0.11 | 0.00 | 1021.6 | ||
| 20260905090852 | 67 | 0.0 | 0.0 | 0.00 | 0.11 | 0.00 | 73 | 1021.2 | |
| 20260905090352 | 67 | 0.0 | 0.0 | 0.00 | 0.11 | 0.00 | 72 | 1021.4 | |
| 20260905085851 | 67 | 0.0 | 0.0 | 0.00 | 0.11 | 0.00 | 72 | 1021.4 | |
| 20260905085349 | 67 | 0.0 | 0.0 | 0.00 | 0.11 | 0.00 | 74 | 1021.3 | |
| 20260905084851 | 66 | 0.0 | 0.0 | 0.00 | 0.11 | 0.00 | 74 | 1021.2 | |
| 20260905084350 | 66 | 0.0 | 0.0 | 0.00 | 0.11 | 0.00 | 74 | 1021.1 | |
| 20260905083851 | 66 | 0.0 | 0.0 | 0.00 | 0.11 | 0.00 | 74 | 1021.2 | |
| 20260905083722 | 66 | 0.0 | 0.0 | 0.00 | 0.11 | 0.00 | 74 | 1021.1 | |
| 20260905082851 | 65 | 0.0 | 0.0 | 0.00 | 0.11 | 0.00 | 76 | 1020.9 | |
| 20260905082350 | 65 | 0.0 | 6.0 | 0.00 | 0.11 | 0.00 | 76 | 1021.0 | |
| 20260905081849 | 65 | 250 | 6.0 | 6.0 | 0.00 | 0.11 | 0.00 | 78 | 1021.0 |
| 20260905081348 | 65 | 0.0 | 0.0 | 0.00 | 0.11 | 0.00 | 78 | 1021.0 | |
| 20260905080850 | 64 | 0.0 | 10.0 | 0.00 | 0.11 | 0.00 | 78 | 1021.1 | |
| 20260905080349 | 64 | 223 | 9.0 | 12.0 | 0.00 | 0.11 | 0.00 | 80 | 1021.0 |
| 20260905075849 | 63 | 227 | 10.0 | 12.0 | 0.00 | 0.11 | 0.00 | 81 | 1021.0 |
| 20260905075349 | 62 | 240 | 6.0 | 7.0 | 0.00 | 0.11 | 0.00 | 81 | 1021.0 |
| 20260905075215 | 62 | 233 | 5.0 | 9.0 | 0.00 | 0.11 | 0.00 | 81 | 1020.8 |
| 20260905074349 | 61 | 261 | 6.0 | 11.0 | 0.00 | 0.11 | 0.00 | 81 | 1020.8 |
| 20260905073850 | 61 | 268 | 9.0 | 11.0 | 0.00 | 0.11 | 0.00 | 81 | 1020.7 |
| 20260905073723 | 0 | 248 | 9.0 | 11.0 | 0.00 | 0.11 | 0.00 | 1020.7 | |
| 20260905073222 | 61 | 309 | 6.0 | 7.0 | 0.00 | 0.11 | 0.00 | 82 | 1020.6 |
| 20260905072350 | 61 | 243 | 4.0 | 10.0 | 0.00 | 0.11 | 0.00 | 83 | 1020.5 |
| 20260905071850 | 60 | 254 | 7.0 | 12.0 | 0.00 | 0.11 | 0.00 | 83 | 1020.5 |
| 20260905071348 | 60 | 248 | 8.0 | 12.0 | 0.00 | 0.11 | 0.00 | 84 | 1020.5 |
| 20260905070848 | 60 | 254 | 4.0 | 11.0 | 0.00 | 0.11 | 0.00 | 84 | 1020.3 |
| 20260905070348 | 60 | 238 | 5.0 | 7.0 | 0.00 | 0.11 | 0.00 | 84 | 1020.3 |
| 20260905065847 | 59 | 258 | 6.0 | 12.0 | 0.00 | 0.11 | 0.00 | 85 | 1020.3 |
| 20260905065346 | 59 | 264 | 4.0 | 12.0 | 0.00 | 0.11 | 0.00 | 85 | 1020.3 |
| 20260905064848 | 59 | 220 | 4.0 | 10.0 | 0.00 | 0.11 | 0.00 | 85 | 1020.2 |
| 20260905064818 | 58 | 221 | 6.0 | 7.0 | 0.00 | 0.11 | 0.00 | 85 | 1020.0 |
| 20260905064812 | 58 | 268 | 7.0 | 10.0 | 0.00 | 0.11 | 0.00 | 85 | 1020.1 |
| 20260905064009 | 58 | 254 | 5.0 | 7.0 | 0.00 | 0.11 | 0.00 | 85 | 1020.1 |
| 20260905062848 | 58 | 230 | 4.0 | 7.0 | 0.00 | 0.11 | 0.00 | 86 | 1020.1 |
| 20260905062346 | 58 | 221 | 6.0 | 9.0 | 0.00 | 0.11 | 0.00 | 86 | 1020.1 |
| 20260905061847 | 58 | 251 | 5.0 | 9.0 | 0.00 | 0.11 | 0.00 | 86 | 1019.9 |
| 20260905061347 | 57 | 241 | 5.0 | 10.0 | 0.00 | 0.11 | 0.00 | 87 | 1019.9 |
| 20260905061229 | 57 | 231 | 4.0 | 10.0 | 0.00 | 0.11 | 0.00 | 86 | 1019.8 |
| 20260905060347 | 57 | 245 | 5.0 | 7.0 | 0.00 | 0.11 | 0.00 | 87 | 1019.7 |
| 20260905055846 | 57 | 259 | 4.0 | 10.0 | 0.00 | 0.11 | 0.00 | 87 | 1019.7 |
| 20260905055346 | 57 | 230 | 4.0 | 10.0 | 0.00 | 0.11 | 0.00 | 87 | 1019.6 |
| 20260905054846 | 57 | 247 | 5.0 | 7.0 | 0.00 | 0.11 | 0.00 | 87 | 1019.6 |
| 20260905054347 | 57 | 247 | 5.0 | 6.0 | 0.00 | 0.11 | 0.00 | 87 | 1019.5 |
| 20260905053846 | 57 | 219 | 4.0 | 7.0 | 0.00 | 0.11 | 0.00 | 88 | 1019.4 |
| 20260905053346 | 56 | 206 | 4.0 | 7.0 | 0.00 | 0.11 | 0.00 | 88 | 1019.4 |
| 20260905052844 | 56 | 231 | 5.0 | 6.0 | 0.00 | 0.11 | 0.00 | 88 | 1019.3 |
| 20260905052344 | 56 | 233 | 4.0 | 7.0 | 0.00 | 0.11 | 0.00 | 88 | 1019.2 |
| 20260905051846 | 56 | 241 | 5.0 | 7.0 | 0.00 | 0.11 | 0.00 | 88 | 1019.1 |
| 20260905051346 | 56 | 230 | 4.0 | 7.0 | 0.00 | 0.11 | 0.00 | 88 | 1019.0 |
| 20260905050846 | 56 | 245 | 4.0 | 7.0 | 0.00 | 0.11 | 0.00 | 88 | 1019.1 |
| 20260905050344 | 56 | 231 | 6.0 | 7.0 | 0.00 | 0.11 | 0.00 | 88 | 1018.9 |
| 20260905045844 | 56 | 210 | 4.0 | 9.0 | 0.00 | 0.11 | 0.00 | 88 | 1018.9 |
| 20260905045343 | 56 | 221 | 4.0 | 9.0 | 0.00 | 0.11 | 0.00 | 88 | 1018.9 |
| 20260905044844 | 56 | 206 | 5.0 | 7.0 | 0.00 | 0.11 | 0.00 | 87 | 1018.8 |
| 20260905044344 | 56 | 226 | 4.0 | 6.0 | 0.00 | 0.11 | 0.00 | 87 | 1018.7 |
| 20260905043844 | 56 | 233 | 4.0 | 6.0 | 0.00 | 0.11 | 0.00 | 87 | 1018.7 |
| 20260905043345 | 56 | 234 | 3.0 | 5.0 | 0.00 | 0.11 | 0.00 | 87 | 1018.7 |
| 20260905043227 | 56 | 235 | 3.0 | 5.0 | 0.00 | 0.11 | 0.00 | 87 | 1018.8 |
| 20260905042726 | 56 | 233 | 4.0 | 5.0 | 0.00 | 0.11 | 0.00 | 86 | 1018.6 |
| 20260905041845 | 56 | 238 | 3.0 | 5.0 | 0.00 | 0.11 | 0.00 | 86 | 1018.5 |
| 20260905041345 | 57 | 244 | 3.0 | 6.0 | 0.00 | 0.11 | 0.00 | 86 | 1018.4 |
| 20260905040843 | 57 | 241 | 2.0 | 6.0 | 0.00 | 0.11 | 0.00 | 86 | 1018.5 |
| 20260905040345 | 57 | 240 | 3.0 | 6.0 | 0.00 | 0.11 | 0.00 | 86 | 1018.5 |
| 20260905035843 | 57 | 241 | 4.0 | 6.0 | 0.00 | 0.11 | 0.00 | 86 | 1018.6 |
| 20260905035342 | 57 | 244 | 3.0 | 6.0 | 0.00 | 0.11 | 0.00 | 86 | 1018.4 |
| 20260905034845 | 57 | 243 | 2.0 | 7.0 | 0.00 | 0.11 | 0.00 | 86 | 1018.4 |
| 20260905034345 | 57 | 234 | 4.0 | 7.0 | 0.00 | 0.11 | 0.00 | 86 | 1018.3 |
| 20260905033841 | 57 | 251 | 4.0 | 6.0 | 0.00 | 0.11 | 0.00 | 86 | 1018.3 |
| 20260905033344 | 57 | 234 | 4.0 | 6.0 | 0.00 | 0.11 | 0.00 | 86 | 1018.3 |
| 20260905032843 | 57 | 219 | 4.0 | 6.0 | 0.00 | 0.11 | 0.00 | 86 | 1018.3 |
| 20260905032343 | 57 | 235 | 4.0 | 6.0 | 0.00 | 0.11 | 0.00 | 86 | 1018.2 |
| 20260905032227 | 57 | 230 | 4.0 | 6.0 | 0.00 | 0.11 | 0.00 | 87 | 1018.1 |
| 20260905031341 | 57 | 227 | 3.0 | 6.0 | 0.00 | 0.11 | 0.00 | 87 | 1018.1 |
| 20260905030842 | 56 | 228 | 4.0 | 6.0 | 0.00 | 0.11 | 0.00 | 87 | 1018.1 |
| 20260905030343 | 56 | 223 | 3.0 | 5.0 | 0.00 | 0.11 | 0.00 | 87 | 1018.0 |
| 20260905025841 | 56 | 217 | 3.0 | 5.0 | 0.00 | 0.11 | 0.00 | 87 | 1018.0 |
| 20260905025726 | 56 | 221 | 4.0 | 5.0 | 0.00 | 0.11 | 0.00 | 87 | 1017.9 |
| 20260905025249 | 56 | 213 | 2.0 | 4.0 | 0.00 | 0.11 | 0.00 | 87 | 1017.9 |
| 20260905024354 | 56 | 212 | 2.0 | 5.0 | 0.00 | 0.11 | 0.00 | 87 | 1018.0 |
| 20260905023840 | 56 | 210 | 2.0 | 6.0 | 0.00 | 0.11 | 0.00 | 87 | 1017.9 |
| 20260905023341 | 56 | 214 | 3.0 | 6.0 | 0.00 | 0.11 | 0.00 | 87 | 1017.9 |
| 20260905022841 | 56 | 228 | 3.0 | 5.0 | 0.00 | 0.11 | 0.00 | 87 | 1017.8 |
| 20260905022340 | 56 | 230 | 4.0 | 5.0 | 0.00 | 0.11 | 0.00 | 87 | 1017.8 |
| 20260905021856 | 56 | 237 | 3.0 | 5.0 | 0.00 | 0.11 | 0.00 | 87 | 1017.8 |
| 20260905021342 | 56 | 231 | 2.0 | 5.0 | 0.00 | 0.11 | 0.00 | 87 | 1017.7 |
| 20260905021230 | 56 | 227 | 2.0 | 6.0 | 0.00 | 0.11 | 0.00 | 87 | 1017.7 |
| 20260905020339 | 56 | 223 | 3.0 | 6.0 | 0.00 | 0.11 | 0.00 | 87 | 1017.7 |
| 20260905015841 | 56 | 226 | 5.0 | 6.0 | 0.00 | 0.11 | 0.00 | 87 | 1017.6 |
| 20260905015340 | 56 | 221 | 4.0 | 6.0 | 0.00 | 0.11 | 0.00 | 87 | 1017.6 |
| 20260905014841 | 56 | 221 | 4.0 | 5.0 | 0.00 | 0.11 | 0.00 | 87 | 1017.6 |
| 20260905014340 | 56 | 214 | 2.0 | 5.0 | 0.00 | 0.11 | 0.00 | 87 | 1017.6 |
| 20260905013841 | 56 | 216 | 3.0 | 4.0 | 0.00 | 0.11 | 0.00 | 87 | 1017.6 |
| 20260905013338 | 56 | 213 | 3.0 | 5.0 | 0.00 | 0.11 | 0.00 | 87 | 1017.5 |
| 20260905012839 | 57 | 223 | 4.0 | 6.0 | 0.00 | 0.11 | 0.00 | 87 | 1017.5 |
| 20260905012337 | 56 | 230 | 4.0 | 6.0 | 0.00 | 0.11 | 0.00 | 87 | 1017.6 |
| 20260905011839 | 56 | 234 | 4.0 | 5.0 | 0.00 | 0.11 | 0.00 | 87 | 1017.5 |
| 20260905011337 | 56 | 248 | 4.0 | 5.0 | 0.00 | 0.11 | 0.00 | 87 | 1017.5 |
| 20260905010838 | 57 | 224 | 3.0 | 6.0 | 0.00 | 0.11 | 0.00 | 87 | 1017.4 |
| 20260905010341 | 57 | 227 | 4.0 | 6.0 | 0.00 | 0.11 | 0.00 | 87 | 1017.4 |
| 20260905005840 | 57 | 224 | 3.0 | 5.0 | 0.00 | 0.11 | 0.00 | 87 | 1017.3 |
| 20260905005340 | 57 | 226 | 3.0 | 4.0 | 0.00 | 0.11 | 0.00 | 87 | 1017.3 |
| 20260905004837 | 57 | 226 | 2.0 | 5.0 | 0.00 | 0.11 | 0.00 | 87 | 1017.3 |
| 20260905004340 | 57 | 226 | 3.0 | 5.0 | 0.00 | 0.11 | 0.00 | 87 | 1017.3 |
| 20260905003838 | 57 | 226 | 3.0 | 4.0 | 0.00 | 0.11 | 0.00 | 86 | 1017.4 |
| 20260905003337 | 57 | 224 | 3.0 | 5.0 | 0.00 | 0.11 | 0.00 | 86 | 1017.3 |
| 20260905002835 | 57 | 226 | 4.0 | 5.0 | 0.00 | 0.11 | 0.00 | 86 | 1017.3 |
| 20260905002718 | 57 | 227 | 2.0 | 4.0 | 0.00 | 0.11 | 0.00 | 86 | 1017.5 |
| 20260905002123 | 57 | 231 | 2.0 | 4.0 | 0.00 | 0.11 | 0.00 | 85 | 1017.3 |
| 20260905002007 | 57 | 231 | 3.0 | 4.0 | 0.00 | 0.11 | 0.00 | 85 | 1017.4 |
| 20260905000836 | 58 | 230 | 3.0 | 4.0 | 0.00 | 0.11 | 0.00 | 84 | 1017.3 |
| 20260905000337 | 58 | 233 | 2.0 | 4.0 | 0.00 | 0.11 | 0.00 | 84 | 1017.3 |
| 20260905000219 | 58 | 234 | 3.0 | 4.0 | 0.00 | 0.11 | 0.00 | 84 | 1017.2 |
| 20260904235336 | 58 | 241 | 4.0 | 4.0 | 0.00 | 0.11 | 0.00 | 84 | 1017.2 |
| 20260904235215 | 58 | 243 | 0.0 | 3.0 | 0.00 | 0.11 | 0.00 | 83 | 1017.2 |
| 20260904234336 | 58 | 244 | 0.0 | 4.0 | 0.00 | 0.11 | 0.00 | 83 | 1017.3 |
| 20260904233836 | 59 | 244 | 1.0 | 5.0 | 0.00 | 0.11 | 0.00 | 83 | 1017.2 |
| 20260904233334 | 59 | 233 | 4.0 | 5.0 | 0.00 | 0.11 | 0.00 | 83 | 1017.2 |
| 20260904232834 | 59 | 234 | 4.0 | 5.0 | 0.00 | 0.11 | 0.00 | 81 | 1017.2 |
| 20260904232334 | 59 | 248 | 3.0 | 4.0 | 0.00 | 0.11 | 0.00 | 80 | 1017.1 |
| 20260904231835 | 59 | 248 | 2.0 | 4.0 | 0.00 | 0.11 | 0.00 | 80 | 1017.1 |
| 20260904231337 | 60 | 248 | 3.0 | 4.0 | 0.00 | 0.11 | 0.00 | 80 | 1017.1 |
| 20260904230834 | 60 | 252 | 3.0 | 4.0 | 0.00 | 0.11 | 0.00 | 79 | 1017.0 |
| 20260904230334 | 60 | 254 | 3.0 | 5.0 | 0.00 | 0.11 | 0.00 | 79 | 1017.0 |
| 20260904225834 | 60 | 255 | 3.0 | 5.0 | 0.00 | 0.11 | 0.00 | 79 | 1017.0 |
| 20260904225334 | 60 | 262 | 3.0 | 6.0 | 0.00 | 0.11 | 0.00 | 78 | 1016.9 |
| 20260904224836 | 60 | 269 | 2.0 | 7.0 | 0.00 | 0.11 | 0.00 | 79 | 1016.9 |
| 20260904224335 | 60 | 268 | 3.0 | 7.0 | 0.00 | 0.11 | 0.00 | 79 | 1016.9 |
| 20260904223834 | 61 | 279 | 4.0 | 7.0 | 0.00 | 0.11 | 0.00 | 79 | 1017.0 |
| 20260904223333 | 61 | 278 | 3.0 | 6.0 | 0.00 | 0.11 | 0.00 | 79 | 1016.9 |
| 20260904223110 | 61 | 271 | 5.0 | 9.0 | 0.00 | 0.11 | 0.00 | 79 | 1016.8 |
| 20260904223001 | 61 | 268 | 4.0 | 9.0 | 0.00 | 0.11 | 0.00 | 79 | 1016.9 |
| 20260904221834 | 61 | 279 | 4.0 | 5.0 | 0.00 | 0.11 | 0.00 | 79 | 1016.7 |
| 20260904221334 | 62 | 268 | 3.0 | 6.0 | 0.00 | 0.11 | 0.00 | 79 | 1016.6 |
| 20260904220833 | 62 | 285 | 4.0 | 6.0 | 0.00 | 0.11 | 0.00 | 79 | 1016.7 |
| 20260904220333 | 62 | 290 | 4.0 | 5.0 | 0.00 | 0.11 | 0.00 | 79 | 1016.7 |
| 20260904215834 | 62 | 278 | 4.0 | 7.0 | 0.00 | 0.11 | 0.11 | 78 | 1016.6 |
| 20260904215333 | 62 | 302 | 4.0 | 7.0 | 0.00 | 0.11 | 0.11 | 78 | 1016.6 |
| 20260904214945 | 63 | 272 | 2.0 | 5.0 | 0.00 | 0.11 | 0.11 | 79 | 1016.5 |
| 20260904214936 | 63 | 288 | 2.0 | 5.0 | 0.00 | 0.11 | 0.11 | 79 | 1016.5 |
| 20260904214906 | 63 | 313 | 2.0 | 6.0 | 0.00 | 0.11 | 0.11 | 79 | 1016.6 |
| 20260904213332 | 63 | 316 | 3.0 | 6.0 | 0.00 | 0.11 | 0.11 | 79 | 1016.5 |
| 20260904212832 | 63 | 293 | 2.0 | 6.0 | 0.00 | 0.11 | 0.11 | 79 | 1016.4 |
| 20260904212333 | 64 | 296 | 5.0 | 7.0 | 0.00 | 0.11 | 0.11 | 79 | 1016.4 |
| 20260904211834 | 64 | 258 | 3.0 | 7.0 | 0.00 | 0.11 | 0.11 | 79 | 1016.3 |
| 20260904211332 | 64 | 261 | 4.0 | 9.0 | 0.00 | 0.11 | 0.11 | 79 | 1016.3 |
| 20260904210833 | 64 | 251 | 4.0 | 9.0 | 0.00 | 0.11 | 0.11 | 79 | 1016.4 |
| 20260904210332 | 64 | 245 | 4.0 | 6.0 | 0.00 | 0.11 | 0.11 | 79 | 1016.4 |
| 20260904205832 | 64 | 261 | 4.0 | 6.0 | 0.00 | 0.11 | 0.11 | 79 | 1016.4 |
| 20260904205333 | 64 | 279 | 3.0 | 9.0 | 0.00 | 0.11 | 0.11 | 79 | 1016.3 |
| 20260904204834 | 64 | 268 | 4.0 | 9.0 | 0.00 | 0.11 | 0.11 | 79 | 1016.2 |
| 20260904204601 | 64 | 244 | 5.0 | 9.0 | 0.00 | 0.11 | 0.11 | 79 | 1016.1 |
| 20260904204454 | 64 | 241 | 2.0 | 9.0 | 0.00 | 0.11 | 0.11 | 78 | 1016.3 |
| 20260904203715 | 64 | 282 | 4.0 | 9.0 | 0.00 | 0.11 | 0.11 | 79 | 1016.0 |
| 20260904202845 | 64 | 275 | 4.0 | 6.0 | 0.00 | 0.11 | 0.11 | 78 | 1016.1 |
| 20260904202331 | 64 | 296 | 3.0 | 5.0 | 0.00 | 0.11 | 0.11 | 78 | 1015.9 |
| 20260904201832 | 64 | 281 | 4.0 | 5.0 | 0.00 | 0.11 | 0.11 | 78 | 1015.8 |
| 20260904201331 | 65 | 271 | 4.0 | 9.0 | 0.00 | 0.11 | 0.11 | 78 | 1015.7 |
| 20260904200830 | 64 | 340 | 2.0 | 9.0 | 0.00 | 0.11 | 0.11 | 79 | 1015.7 |
| 20260904200333 | 65 | 292 | 3.0 | 6.0 | 0.00 | 0.11 | 0.11 | 79 | 1015.7 |
| 20260904195830 | 65 | 305 | 2.0 | 7.0 | 0.00 | 0.11 | 0.11 | 79 | 1015.5 |
| 20260904195332 | 65 | 300 | 4.0 | 7.0 | 0.00 | 0.11 | 0.11 | 79 | 1015.5 |
| 20260904194947 | 65 | 307 | 3.0 | 9.0 | 0.00 | 0.11 | 0.11 | 79 | 1015.4 |
| 20260904194911 | 65 | 298 | 4.0 | 9.0 | 0.00 | 0.11 | 0.11 | 79 | 1015.5 |
| 20260904194454 | 65 | 283 | 4.0 | 9.0 | 0.00 | 0.11 | 0.11 | 79 | 1015.5 |
| 20260904193331 | 65 | 320 | 3.0 | 7.0 | 0.00 | 0.11 | 0.11 | 79 | 1015.4 |
| 20260904192830 | 65 | 292 | 4.0 | 6.0 | 0.00 | 0.11 | 0.11 | 80 | 1015.3 |
| 20260904192330 | 65 | 310 | 4.0 | 6.0 | 0.00 | 0.11 | 0.11 | 80 | 1015.4 |
| 20260904191830 | 65 | 296 | 3.0 | 6.0 | 0.00 | 0.11 | 0.11 | 80 | 1015.4 |
| 20260904191330 | 65 | 306 | 4.0 | 6.0 | 0.00 | 0.11 | 0.11 | 80 | 1015.4 |
| 20260904190830 | 65 | 338 | 3.0 | 7.0 | 0.00 | 0.11 | 0.11 | 80 | 1015.3 |
| 20260904190716 | 65 | 300 | 4.0 | 7.0 | 0.00 | 0.11 | 0.11 | 80 | 1015.2 |
| 20260904185829 | 65 | 323 | 4.0 | 9.0 | 0.00 | 0.11 | 0.11 | 81 | 1015.2 |
| 20260904185331 | 65 | 326 | 2.0 | 9.0 | 0.00 | 0.11 | 0.11 | 81 | 1015.0 |
| 20260904185216 | 65 | 316 | 4.0 | 7.0 | 0.00 | 0.11 | 0.11 | 81 | 1015.0 |
| 20260904184329 | 65 | 330 | 3.0 | 7.0 | 0.00 | 0.11 | 0.11 | 82 | 1015.0 |
| 20260904184056 | 66 | 324 | 2.0 | 7.0 | 0.00 | 0.11 | 0.11 | 82 | 1014.8 |
| 20260904183953 | 65 | 316 | 2.0 | 7.0 | 0.00 | 0.11 | 0.11 | 82 | 1014.8 |
| 20260904182830 | 66 | 320 | 3.0 | 7.0 | 0.00 | 0.11 | 0.11 | 82 | 1014.6 |
| 20260904182556 | 66 | 300 | 4.0 | 10.0 | 0.00 | 0.11 | 0.11 | 82 | 1014.6 |
| 20260904182448 | 66 | 300 | 1.0 | 9.0 | 0.00 | 0.11 | 0.11 | 82 | 1014.7 |
| 20260904181329 | 66 | 278 | 3.0 | 10.0 | 0.00 | 0.11 | 0.11 | 82 | 1014.6 |
| 20260904181102 | 66 | 324 | 4.0 | 7.0 | 0.00 | 0.11 | 0.11 | 81 | 1014.6 |
| 20260904180955 | 66 | 316 | 4.0 | 9.0 | 0.00 | 0.11 | 0.11 | 82 | 1014.7 |
| 20260904175827 | 66 | 269 | 4.0 | 13.0 | 0.00 | 0.11 | 0.11 | 81 | 1014.5 |
| 20260904175329 | 66 | 282 | 6.0 | 13.0 | 0.00 | 0.11 | 0.11 | 81 | 1014.7 |
| 20260904174828 | 66 | 319 | 5.0 | 12.0 | 0.00 | 0.11 | 0.11 | 81 | 1014.4 |
| 20260904174329 | 66 | 313 | 8.0 | 12.0 | 0.00 | 0.11 | 0.11 | 82 | 1014.2 |
| 20260904173826 | 66 | 6 | 4.0 | 7.0 | 0.00 | 0.11 | 0.11 | 81 | 1014.1 |
| 20260904173328 | 66 | 275 | 5.0 | 10.0 | 0.00 | 0.11 | 0.11 | 82 | 1014.0 |
| 20260904172828 | 66 | 278 | 5.0 | 10.0 | 0.00 | 0.11 | 0.11 | 82 | 1014.0 |
| 20260904172326 | 66 | 286 | 4.0 | 7.0 | 0.00 | 0.11 | 0.11 | 82 | 1014.1 |
| 20260904171828 | 66 | 248 | 4.0 | 10.0 | 0.00 | 0.11 | 0.11 | 82 | 1014.0 |
| 20260904171328 | 66 | 298 | 5.0 | 10.0 | 0.00 | 0.11 | 0.11 | 82 | 1014.0 |
| 20260904170828 | 66 | 316 | 4.0 | 12.0 | 0.00 | 0.11 | 0.11 | 82 | 1013.8 |
| 20260904170328 | 66 | 324 | 5.0 | 12.0 | 0.00 | 0.11 | 0.11 | 83 | 1014.0 |
| 20260904165828 | 67 | 298 | 4.0 | 6.0 | 0.00 | 0.11 | 0.11 | 83 | 1013.9 |
| 20260904165329 | 67 | 272 | 4.0 | 6.0 | 0.00 | 0.11 | 0.11 | 83 | 1013.8 |
| 20260904165205 | 67 | 275 | 4.0 | 9.0 | 0.00 | 0.11 | 0.11 | 83 | 1013.8 |
| 20260904164328 | 67 | 279 | 6.0 | 10.0 | 0.00 | 0.11 | 0.11 | 83 | 1013.7 |
| 20260904164207 | 67 | 281 | 5.0 | 10.0 | 0.00 | 0.11 | 0.11 | 83 | 1013.7 |
| 20260904163326 | 66 | 331 | 2.0 | 7.0 | 0.00 | 0.11 | 0.11 | 84 | 1013.5 |
| 20260904162828 | 66 | 286 | 5.0 | 10.0 | 0.00 | 0.11 | 0.11 | 84 | 1013.7 |
| 20260904162325 | 66 | 283 | 4.0 | 12.0 | 0.00 | 0.11 | 0.11 | 84 | 1013.7 |
| 20260904162213 | 66 | 302 | 6.0 | 12.0 | 0.00 | 0.11 | 0.11 | 86 | 1013.7 |
| 20260904161326 | 66 | 248 | 5.0 | 11.0 | 0.00 | 0.11 | 0.11 | 86 | 1013.7 |
| 20260904160826 | 66 | 293 | 6.0 | 9.0 | 0.00 | 0.11 | 0.11 | 86 | 1013.6 |
| 20260904160327 | 66 | 281 | 4.0 | 10.0 | 0.00 | 0.11 | 0.11 | 86 | 1013.8 |
| 20260904155824 | 66 | 251 | 6.0 | 12.0 | 0.01 | 0.11 | 0.09 | 87 | 1013.8 |
| 20260904155326 | 65 | 306 | 7.0 | 12.0 | 0.01 | 0.11 | 0.09 | 87 | 1013.7 |
| 20260904155055 | 65 | 244 | 5.0 | 12.0 | 0.02 | 0.11 | 0.09 | 88 | 1013.7 |
| 20260904154946 | 65 | 271 | 8.0 | 12.0 | 0.01 | 0.11 | 0.09 | 87 | 1013.8 |
| 20260904153823 | 65 | 276 | 6.0 | 12.0 | 0.02 | 0.11 | 0.09 | 88 | 1013.6 |
| 20260904153326 | 65 | 279 | 4.0 | 12.0 | 0.02 | 0.11 | 0.09 | 88 | 1013.5 |
| 20260904152824 | 65 | 265 | 6.0 | 12.0 | 0.02 | 0.11 | 0.09 | 88 | 1013.6 |
| 20260904152324 | 65 | 258 | 7.0 | 12.0 | 0.02 | 0.11 | 0.09 | 88 | 1013.4 |
| 20260904151823 | 65 | 259 | 6.0 | 11.0 | 0.02 | 0.11 | 0.09 | 89 | 1013.4 |
| 20260904151323 | 65 | 288 | 6.0 | 11.0 | 0.02 | 0.11 | 0.09 | 89 | 1013.5 |
| 20260904150823 | 64 | 271 | 5.0 | 13.0 | 0.02 | 0.10 | 0.10 | 89 | 1013.6 |
| 20260904150321 | 64 | 269 | 6.0 | 13.0 | 0.02 | 0.10 | 0.10 | 89 | 1013.7 |
| 20260904145824 | 64 | 269 | 6.0 | 13.0 | 0.02 | 0.09 | 0.07 | 89 | 1013.6 |
| 20260904145611 | 0 | 274 | 6.0 | 15.0 | 0.02 | 0.09 | 0.07 | 1013.5 | |
| 20260904145447 | 64 | 271 | 8.0 | 13.0 | 0.02 | 0.09 | 0.07 | 89 | 1013.8 |
| 20260904144324 | 0 | 330 | 7.0 | 15.0 | 0.00 | 0.09 | 0.09 | 1013.5 | |
| 20260904143824 | 0 | 289 | 9.0 | 15.0 | 0.00 | 0.09 | 0.09 | 1013.5 | |
| 20260904143606 | 64 | 320 | 6.0 | 18.0 | 0.01 | 0.09 | 0.09 | 89 | 1013.5 |
| 20260904143449 | 0 | 319 | 9.0 | 15.0 | 0.01 | 0.09 | 0.09 | 1013.6 | |
| 20260904142324 | 0 | 331 | 8.0 | 18.0 | 0.02 | 0.09 | 0.09 | 1013.5 | |
| 20260904141824 | 64 | 299 | 6.0 | 18.0 | 0.02 | 0.09 | 0.09 | 89 | 1013.6 |
| 20260904141659 | 0 | 286 | 3.0 | 12.0 | 0.02 | 0.09 | 0.09 | 1013.5 | |
| 20260904140822 | 0 | 278 | 3.0 | 11.0 | 0.03 | 0.09 | 0.09 | 1013.4 | |
| 20260904140322 | 0 | 323 | 4.0 | 13.0 | 0.03 | 0.09 | 0.09 | 1013.2 | |
| 20260904140204 | 0 | 283 | 5.0 | 13.0 | 0.03 | 0.06 | 0.06 | 1013.2 | |
| 20260904135704 | 0 | 269 | 8.0 | 13.0 | 0.04 | 0.06 | 0.06 | 1013.2 | |
| 20260904134821 | 0 | 298 | 8.0 | 13.0 | 0.05 | 0.06 | 0.06 | 1013.1 | |
| 20260904134321 | 0 | 319 | 4.0 | 19.0 | 0.05 | 0.06 | 0.06 | 1013.0 | |
| 20260904134043 | 0 | 324 | 12.0 | 18.0 | 0.04 | 0.06 | 0.06 | 1013.1 | |
| 20260904133939 | 0 | 266 | 10.0 | 19.0 | 0.05 | 0.06 | 0.06 | 1013.0 | |
| 20260904132820 | 0 | 310 | 8.0 | 18.0 | 0.04 | 0.06 | 0.06 | 1013.2 | |
| 20260904132321 | 65 | 354 | 8.0 | 15.0 | 0.03 | 0.06 | 0.05 | 88 | 1013.0 |
| 20260904131819 | 0 | 341 | 8.0 | 13.0 | 0.04 | 0.06 | 0.05 | 1012.8 | |
| 20260904131320 | 66 | 302 | 6.0 | 13.0 | 0.04 | 0.06 | 0.05 | 88 | 1012.8 |
| 20260904130822 | 66 | 257 | 5.0 | 15.0 | 0.02 | 0.06 | 0.06 | 85 | 1013.0 |
| 20260904130321 | 66 | 302 | 7.0 | 17.0 | 0.02 | 0.06 | 0.06 | 85 | 1012.9 |
| 20260904125821 | 67 | 282 | 10.0 | 17.0 | 0.02 | 0.03 | 0.06 | 85 | 1012.8 |
| 20260904125319 | 0 | 323 | 10.0 | 18.0 | 0.02 | 0.03 | 0.05 | 1012.7 | |
| 20260904124820 | 69 | 271 | 12.0 | 19.0 | 0.01 | 0.03 | 0.04 | 86 | 1012.2 |
| 20260904124321 | 69 | 271 | 10.0 | 19.0 | 0.01 | 0.03 | 0.04 | 86 | 1012.0 |
| 20260904123822 | 70 | 230 | 11.0 | 17.0 | 0.01 | 0.03 | 0.04 | 86 | 1012.1 |
| 20260904123319 | 70 | 250 | 7.0 | 16.0 | 0.01 | 0.03 | 0.04 | 85 | 1012.1 |
| 20260904122820 | 70 | 241 | 10.0 | 16.0 | 0.01 | 0.03 | 0.04 | 85 | 1012.1 |
| 20260904122321 | 71 | 235 | 5.0 | 13.0 | 0.01 | 0.03 | 0.04 | 84 | 1012.0 |
| 20260904121819 | 71 | 214 | 8.0 | 15.0 | 0.00 | 0.03 | 0.03 | 84 | 1012.0 |
| 20260904121318 | 71 | 296 | 8.0 | 15.0 | 0.00 | 0.03 | 0.03 | 84 | 1012.0 |
| 20260904120819 | 71 | 271 | 8.0 | 13.0 | 0.00 | 0.03 | 0.03 | 84 | 1012.0 |
| 20260904120321 | 70 | 243 | 7.0 | 18.0 | 0.00 | 0.03 | 0.03 | 83 | 1011.9 |
| 20260904115818 | 70 | 262 | 7.0 | 22.0 | 0.00 | 0.03 | 0.00 | 84 | 1011.9 |
| 20260904115319 | 70 | 254 | 8.0 | 22.0 | 0.02 | 0.03 | 0.00 | 83 | 1011.8 |
| 20260904114818 | 71 | 183 | 9.0 | 18.0 | 0.03 | 0.03 | 0.00 | 83 | 1011.9 |
| 20260904114700 | 71 | 216 | 9.0 | 21.0 | 0.03 | 0.03 | 0.00 | 83 | 1011.8 |
| 20260904113817 | 71 | 251 | 12.0 | 21.0 | 0.03 | 0.03 | 0.00 | 84 | 1011.9 |
| 20260904113659 | 70 | 223 | 6.0 | 16.0 | 0.03 | 0.03 | 0.00 | 85 | 1011.9 |
| 20260904112817 | 70 | 285 | 8.0 | 21.0 | 0.03 | 0.03 | 0.00 | 85 | 1011.9 |
| 20260904112318 | 70 | 275 | 9.0 | 21.0 | 0.03 | 0.03 | 0.00 | 85 | 1011.9 |
| 20260904111818 | 70 | 252 | 9.0 | 18.0 | 0.03 | 0.03 | 0.00 | 85 | 1011.8 |
| 20260904111317 | 70 | 248 | 7.0 | 18.0 | 0.03 | 0.03 | 0.00 | 86 | 1011.7 |
| 20260904110818 | 70 | 282 | 7.0 | 15.0 | 0.03 | 0.03 | 0.00 | 86 | 1011.8 |
| 20260904110318 | 70 | 213 | 8.0 | 15.0 | 0.03 | 0.02 | 0.02 | 84 | 1012.0 |
| 20260904105817 | 70 | 276 | 10.0 | 16.0 | 0.03 | 0.00 | 0.02 | 84 | 1012.1 |
| 20260904105319 | 71 | 289 | 11.0 | 16.0 | 0.01 | 0.00 | 0.01 | 82 | 1012.1 |
| 20260904104819 | 71 | 251 | 8.0 | 19.0 | 0.00 | 0.00 | 0.00 | 81 | 1012.0 |
| 20260904104317 | 71 | 223 | 11.0 | 19.0 | 0.00 | 0.00 | 0.00 | 80 | 1012.2 |
| 20260904103816 | 71 | 266 | 10.0 | 26.0 | 0.00 | 0.00 | 0.00 | 80 | 1012.1 |
| 20260904103318 | 71 | 245 | 11.0 | 26.0 | 0.00 | 0.00 | 0.00 | 80 | 1012.1 |
| 20260904102816 | 71 | 271 | 9.0 | 19.0 | 0.00 | 0.00 | 0.00 | 81 | 1012.1 |
| 20260904102705 | 71 | 210 | 7.0 | 20.0 | 0.00 | 0.00 | 0.00 | 82 | 1012.1 |
| 20260904101816 | 71 | 252 | 13.0 | 22.0 | 0.00 | 0.00 | 0.00 | 81 | 1012.0 |
| 20260904101316 | 71 | 203 | 12.0 | 22.0 | 0.00 | 0.00 | 0.00 | 80 | 1012.1 |
| 20260904100815 | 72 | 295 | 11.0 | 19.0 | 0.00 | 0.00 | 0.00 | 78 | 1012.2 |
| 20260904100315 | 72 | 265 | 10.0 | 19.0 | 0.00 | 0.00 | 0.00 | 78 | 1012.0 |